Time,TemperatureF,DewpointF,PressureIn,WindDirection,WindDirectionDegrees,WindSpeedMPH,WindSpeedGustMPH,Humidity,HourlyPrecipIn,Conditions,Clouds,dailyrainin,SoftwareType,DateUTC
2013-03-30 00:02:00,34.0,25.0,30.09,SSE,150,0.0,0.0,70,0.00,,,0.00,,2013-03-30 05:02:00,
2013-03-30 00:12:00,34.0,25.0,30.09,SSE,150,0.0,0.0,70,0.00,,,0.00,,2013-03-30 05:12:00,
2013-03-30 00:22:00,34.0,26.0,30.09,SSE,150,0.0,0.0,71,0.00,,,0.00,,2013-03-30 05:22:00,
2013-03-30 00:32:00,33.0,25.0,30.09,SSE,150,0.0,1.0,72,0.00,,,0.00,,2013-03-30 05:32:00,
2013-03-30 00:42:00,33.0,25.0,30.09,SSE,150,0.0,1.0,72,0.00,,,0.00,,2013-03-30 05:42:00,
2013-03-30 00:52:00,33.0,25.0,30.08,SSE,150,0.0,0.0,72,0.00,,,0.00,,2013-03-30 05:52:00,
2013-03-30 01:02:00,34.0,26.0,30.07,SSE,150,0.0,0.0,73,0.00,,,0.00,,2013-03-30 06:02:00,
2013-03-30 01:11:00,34.0,26.0,30.07,SSE,150,0.0,0.0,73,0.00,,,0.00,,2013-03-30 06:11:00,
2013-03-30 01:22:00,34.0,26.0,30.07,East,95,0.0,0.0,72,0.00,,,0.00,,2013-03-30 06:22:00,
2013-03-30 01:32:00,34.0,26.0,30.07,SSE,155,0.0,0.0,72,0.00,,,0.00,,2013-03-30 06:32:00,
2013-03-30 01:42:00,34.0,26.0,30.07,SSE,155,0.0,0.0,72,0.00,,,0.00,,2013-03-30 06:42:00,
2013-03-30 01:52:00,35.0,26.0,30.07,SSE,163,0.0,0.0,70,0.00,,,0.00,,2013-03-30 06:52:00,
2013-03-30 02:02:00,36.0,26.0,30.06,SSE,147,0.0,0.0,67,0.00,,,0.00,,2013-03-30 07:02:00,
2013-03-30 02:12:00,36.0,26.0,30.06,SSE,147,0.0,0.0,67,0.00,,,0.00,,2013-03-30 07:12:00,
2013-03-30 02:22:00,37.0,27.0,30.06,SSE,147,0.0,0.0,66,0.00,,,0.00,,2013-03-30 07:22:00,
2013-03-30 02:32:00,37.0,28.0,30.05,SSE,147,0.0,0.0,69,0.00,,,0.00,,2013-03-30 07:32:00,
2013-03-30 02:42:00,37.0,28.0,30.05,SSE,147,0.0,0.0,69,0.00,,,0.00,,2013-03-30 07:42:00,
2013-03-30 02:52:00,37.0,27.0,30.04,SSE,147,0.0,0.0,67,0.00,,,0.00,,2013-03-30 07:52:00,
2013-03-30 03:02:00,37.0,27.0,30.04,SSE,147,0.0,0.0,68,0.00,,,0.00,,2013-03-30 08:02:00,
2013-03-30 03:12:00,37.0,27.0,30.04,SSE,147,0.0,0.0,68,0.00,,,0.00,,2013-03-30 08:12:00,
2013-03-30 03:21:00,38.0,28.0,30.03,SSE,147,0.0,0.0,68,0.00,,,0.00,,2013-03-30 08:21:00,
2013-03-30 03:32:00,38.0,28.0,30.02,SSE,147,0.0,0.0,66,0.00,,,0.00,,2013-03-30 08:32:00,
2013-03-30 03:42:00,38.0,28.0,30.02,SSE,147,0.0,0.0,66,0.00,,,0.00,,2013-03-30 08:42:00,
2013-03-30 03:53:00,38.0,28.0,30.01,SSE,147,0.0,0.0,68,0.00,,,0.00,,2013-03-30 08:53:00,
2013-03-30 04:02:00,38.0,28.0,30.00,SE,138,0.0,0.0,68,0.00,,,0.00,,2013-03-30 09:02:00,
2013-03-30 04:12:00,39.0,29.0,29.99,SE,134,0.0,3.0,67,0.00,,,0.00,,2013-03-30 09:12:00,
2013-03-30 04:22:00,39.0,29.0,29.99,SE,134,0.0,3.0,67,0.00,,,0.00,,2013-03-30 09:22:00,
2013-03-30 04:42:00,39.0,29.0,29.99,SE,134,0.0,0.0,66,0.00,,,0.00,,2013-03-30 09:42:00,
2013-03-30 04:53:00,39.0,28.0,29.98,East,96,0.0,0.0,65,0.00,,,0.00,,2013-03-30 09:53:00,
2013-03-30 05:02:00,39.0,29.0,29.98,ESE,121,0.0,0.0,66,0.00,,,0.00,,2013-03-30 10:02:00,
2013-03-30 05:12:00,39.0,29.0,29.98,ESE,121,0.0,0.0,66,0.00,,,0.00,,2013-03-30 10:12:00,
2013-03-30 05:23:00,40.0,30.0,29.96,SW,236,0.0,3.0,66,0.00,,,0.00,,2013-03-30 10:23:00,
2013-03-30 05:32:00,40.0,30.0,29.95,SSE,150,0.0,1.0,66,0.00,,,0.00,,2013-03-30 10:32:00,
2013-03-30 05:42:00,40.0,30.0,29.95,SSE,150,0.0,1.0,66,0.00,,,0.00,,2013-03-30 10:42:00,
2013-03-30 05:52:00,40.0,29.0,29.94,SE,126,0.0,1.0,65,0.00,,,0.00,,2013-03-30 10:52:00,
2013-03-30 06:03:00,40.0,29.0,29.94,East,90,0.0,2.0,65,0.00,,,0.00,,2013-03-30 11:03:00,
2013-03-30 06:12:00,40.0,29.0,29.94,East,90,0.0,2.0,65,0.00,,,0.00,,2013-03-30 11:12:00,
2013-03-30 06:22:00,40.0,29.0,29.93,ESE,120,0.0,0.0,65,0.00,,,0.00,,2013-03-30 11:22:00,
2013-03-30 06:32:00,40.0,29.0,29.93,SE,130,0.0,1.0,64,0.00,,,0.00,,2013-03-30 11:32:00,
2013-03-30 06:42:00,40.0,29.0,29.93,SE,130,0.0,1.0,64,0.00,,,0.00,,2013-03-30 11:42:00,
2013-03-30 06:53:00,41.0,30.0,29.94,ENE,78,0.0,1.0,64,0.00,,,0.00,,2013-03-30 11:53:00,
2013-03-30 07:02:00,40.0,30.0,29.94,South,187,0.0,3.0,68,0.00,,,0.00,,2013-03-30 12:02:00,
2013-03-30 07:12:00,40.0,30.0,29.94,South,187,0.0,3.0,68,0.00,,,0.00,,2013-03-30 12:12:00,
2013-03-30 07:22:00,39.0,32.0,29.95,WNW,291,1.0,3.0,77,0.01,,,0.01,,2013-03-30 12:22:00,
2013-03-30 07:32:00,38.0,33.0,29.94,SW,231,0.0,0.0,81,0.06,,,0.06,,2013-03-30 12:32:00,
2013-03-30 07:42:00,38.0,33.0,29.94,SW,231,0.0,0.0,81,0.06,,,0.06,,2013-03-30 12:42:00,
2013-03-30 07:53:00,37.0,33.0,29.92,SE,128,0.0,3.0,86,0.14,,,0.14,,2013-03-30 12:53:00,
2013-03-30 08:02:00,37.0,34.0,29.91,ESE,102,0.0,2.0,87,0.18,,,0.18,,2013-03-30 13:02:00,
2013-03-30 08:12:00,37.0,34.0,29.91,ESE,102,0.0,2.0,87,0.18,,,0.18,,2013-03-30 13:12:00,
2013-03-30 08:22:00,36.0,33.0,29.90,ESE,117,0.0,3.0,88,0.20,,,0.21,,2013-03-30 13:22:00,
2013-03-30 08:32:00,36.0,33.0,29.89,SSE,151,0.0,3.0,88,0.20,,,0.23,,2013-03-30 13:32:00,
2013-03-30 08:42:00,36.0,33.0,29.89,SSE,151,0.0,3.0,88,0.20,,,0.23,,2013-03-30 13:42:00,
2013-03-30 08:52:00,36.0,33.0,29.88,SSW,208,0.0,1.0,89,0.14,,,0.26,,2013-03-30 13:52:00,
2013-03-30 09:02:00,37.0,34.0,29.88,SSE,165,0.0,3.0,89,0.10,,,0.28,,2013-03-30 14:02:00,
2013-03-30 09:11:00,37.0,34.0,29.88,SSE,165,0.0,3.0,89,0.10,,,0.28,,2013-03-30 14:11:00,
2013-03-30 09:22:00,37.0,34.0,29.87,SE,127,0.0,1.0,89,0.07,,,0.30,,2013-03-30 14:22:00,
2013-03-30 09:32:00,37.0,34.0,29.87,SE,125,0.0,3.0,89,0.07,,,0.32,,2013-03-30 14:32:00,
2013-03-30 09:42:00,37.0,34.0,29.87,SE,125,0.0,3.0,89,0.07,,,0.32,,2013-03-30 14:42:00,
2013-03-30 09:52:00,37.0,34.0,29.87,West,272,1.0,3.0,90,0.09,,,0.35,,2013-03-30 14:52:00,
2013-03-30 10:02:00,37.0,34.0,29.87,ESE,119,0.0,1.0,89,0.10,,,0.38,,2013-03-30 15:02:00,
2013-03-30 10:12:00,37.0,34.0,29.87,ESE,119,0.0,1.0,89,0.10,,,0.38,,2013-03-30 15:12:00,
2013-03-30 10:22:00,37.0,34.0,29.87,ESE,119,0.0,0.0,90,0.12,,,0.42,,2013-03-30 15:22:00,
2013-03-30 10:33:00,37.0,34.0,29.86,ESE,123,0.0,2.0,90,0.11,,,0.43,,2013-03-30 15:33:00,
2013-03-30 10:43:00,37.0,34.0,29.86,ESE,123,0.0,2.0,90,0.11,,,0.43,,2013-03-30 15:43:00,
2013-03-30 10:52:00,37.0,34.0,29.86,SSE,163,0.0,0.0,90,0.12,,,0.46,,2013-03-30 15:52:00,
2013-03-30 11:03:00,37.0,34.0,29.86,SSE,152,0.0,0.0,90,0.13,,,0.50,,2013-03-30 16:03:00,
2013-03-30 11:13:00,37.0,34.0,29.85,SE,142,0.0,0.0,90,0.13,,,0.52,,2013-03-30 16:13:00,
2013-03-30 11:23:00,37.0,34.0,29.85,SE,142,0.0,0.0,90,0.13,,,0.52,,2013-03-30 16:23:00,
2013-03-30 11:33:00,38.0,36.0,29.84,SE,138,0.0,0.0,91,0.12,,,0.55,,2013-03-30 16:33:00,
2013-03-30 11:43:00,38.0,36.0,29.84,SE,138,0.0,0.0,91,0.12,,,0.55,,2013-03-30 16:43:00,
2013-03-30 11:52:00,38.0,36.0,29.84,SE,134,0.0,0.0,91,0.12,,,0.57,,2013-03-30 16:52:00,
2013-03-30 12:02:00,39.0,37.0,29.83,South,171,0.0,0.0,91,0.10,,,0.60,,2013-03-30 17:02:00,
2013-03-30 12:13:00,39.0,37.0,29.83,South,171,0.0,0.0,91,0.10,,,0.60,,2013-03-30 17:13:00,
2013-03-30 12:22:00,39.0,37.0,29.83,WSW,257,0.0,1.0,91,0.07,,,0.61,,2013-03-30 17:22:00,
2013-03-30 12:32:00,39.0,37.0,29.83,SE,131,0.0,2.0,91,0.07,,,0.62,,2013-03-30 17:32:00,
2013-03-30 12:42:00,39.0,37.0,29.83,SE,131,0.0,2.0,91,0.07,,,0.62,,2013-03-30 17:42:00,
2013-03-30 12:52:00,40.0,38.0,29.82,SSW,207,0.0,2.0,91,0.07,,,0.66,,2013-03-30 17:52:00,
2013-03-30 13:03:00,40.0,38.0,29.81,WNW,295,1.0,3.0,91,0.08,,,0.68,,2013-03-30 18:03:00,
2013-03-30 13:12:00,40.0,38.0,29.82,West,263,1.0,2.0,91,0.07,,,0.68,,2013-03-30 18:12:00,
2013-03-30 13:22:00,40.0,38.0,29.82,West,263,1.0,2.0,91,0.07,,,0.68,,2013-03-30 18:22:00,
2013-03-30 13:32:00,40.0,38.0,29.81,West,263,0.0,1.0,91,0.06,,,0.69,,2013-03-30 18:32:00,
2013-03-30 13:42:00,40.0,38.0,29.81,West,263,0.0,1.0,91,0.06,,,0.69,,2013-03-30 18:42:00,
2013-03-30 13:52:00,40.0,38.0,29.81,West,263,0.0,0.0,91,0.05,,,0.70,,2013-03-30 18:52:00,
2013-03-30 14:02:00,40.0,38.0,29.81,West,263,0.0,0.0,91,0.03,,,0.70,,2013-03-30 19:02:00,
2013-03-30 14:13:00,40.0,38.0,29.81,West,263,0.0,0.0,91,0.03,,,0.70,,2013-03-30 19:13:00,
2013-03-30 14:22:00,40.0,38.0,29.81,West,263,0.0,0.0,91,0.02,,,0.70,,2013-03-30 19:22:00,
2013-03-30 14:32:00,40.0,38.0,29.80,West,263,0.0,0.0,91,0.01,,,0.70,,2013-03-30 19:32:00,
2013-03-30 14:42:00,40.0,38.0,29.80,West,263,0.0,0.0,91,0.01,,,0.70,,2013-03-30 19:42:00,
2013-03-30 14:53:00,40.0,38.0,29.80,West,263,0.0,0.0,91,0.00,,,0.70,,2013-03-30 19:53:00,
2013-03-30 15:02:00,40.0,38.0,29.80,West,267,0.0,2.0,91,0.01,,,0.71,,2013-03-30 20:02:00,
2013-03-30 15:12:00,40.0,38.0,29.80,West,267,0.0,2.0,91,0.01,,,0.71,,2013-03-30 20:12:00,
2013-03-30 15:22:00,41.0,39.0,29.80,SW,233,0.0,3.0,92,0.01,,,0.71,,2013-03-30 20:22:00,
2013-03-30 15:32:00,41.0,39.0,29.80,West,279,0.0,2.0,92,0.01,,,0.71,,2013-03-30 20:32:00,
2013-03-30 15:42:00,41.0,39.0,29.80,West,279,0.0,2.0,92,0.01,,,0.71,,2013-03-30 20:42:00,
2013-03-30 15:52:00,41.0,39.0,29.80,WSW,257,0.0,2.0,92,0.01,,,0.71,,2013-03-30 20:52:00,
2013-03-30 16:02:00,41.0,39.0,29.79,WSW,256,0.0,1.0,92,0.00,,,0.71,,2013-03-30 21:02:00,
2013-03-30 16:12:00,41.0,39.0,29.79,WSW,256,0.0,1.0,92,0.00,,,0.71,,2013-03-30 21:12:00,
2013-03-30 16:22:00,41.0,39.0,29.79,WSW,256,0.0,2.0,92,0.00,,,0.71,,2013-03-30 21:22:00,
2013-03-30 16:33:00,41.0,39.0,29.79,West,259,0.0,2.0,92,0.00,,,0.71,,2013-03-30 21:33:00,
2013-03-30 16:43:00,41.0,39.0,29.79,West,259,0.0,2.0,92,0.00,,,0.71,,2013-03-30 21:43:00,
2013-03-30 16:52:00,41.0,39.0,29.79,WSW,257,1.0,2.0,92,0.00,,,0.71,,2013-03-30 21:52:00,
2013-03-30 17:03:00,41.0,39.0,29.79,WSW,257,0.0,0.0,92,0.00,,,0.71,,2013-03-30 22:03:00,
2013-03-30 17:13:00,41.0,39.0,29.79,WSW,257,0.0,0.0,92,0.00,,,0.71,,2013-03-30 22:13:00,
2013-03-30 17:23:00,41.0,39.0,29.79,WSW,257,0.0,1.0,91,0.00,,,0.71,,2013-03-30 22:23:00,
2013-03-30 17:33:00,41.0,39.0,29.79,WSW,257,0.0,1.0,92,0.00,,,0.71,,2013-03-30 22:33:00,
2013-03-30 17:43:00,41.0,39.0,29.79,WSW,257,0.0,1.0,92,0.00,,,0.71,,2013-03-30 22:43:00,
2013-03-30 17:53:00,41.0,39.0,29.79,WSW,257,0.0,0.0,91,0.00,,,0.71,,2013-03-30 22:53:00,
2013-03-30 18:02:00,41.0,39.0,29.79,WSW,257,0.0,0.0,91,0.00,,,0.71,,2013-03-30 23:02:00,
2013-03-30 18:12:00,41.0,39.0,29.79,WSW,257,0.0,0.0,91,0.00,,,0.71,,2013-03-30 23:12:00,
2013-03-30 18:22:00,41.0,39.0,29.79,WSW,238,0.0,0.0,91,0.00,,,0.71,,2013-03-30 23:22:00,
2013-03-30 18:32:00,41.0,39.0,29.79,WSW,238,0.0,0.0,91,0.00,,,0.71,,2013-03-30 23:32:00,
2013-03-30 18:42:00,41.0,39.0,29.79,WSW,238,0.0,0.0,91,0.00,,,0.71,,2013-03-30 23:42:00,
2013-03-30 18:53:00,41.0,39.0,29.79,WSW,238,0.0,0.0,91,0.00,,,0.71,,2013-03-30 23:53:00,
2013-03-30 19:02:00,41.0,39.0,29.79,WSW,238,0.0,0.0,91,0.00,,,0.71,,2013-03-31 00:02:00,
2013-03-30 19:12:00,41.0,39.0,29.79,WSW,238,0.0,0.0,91,0.00,,,0.71,,2013-03-31 00:12:00,
2013-03-30 19:22:00,40.0,38.0,29.79,WSW,238,0.0,0.0,91,0.00,,,0.71,,2013-03-31 00:22:00,
2013-03-30 19:32:00,40.0,38.0,29.79,WSW,238,0.0,0.0,91,0.00,,,0.71,,2013-03-31 00:32:00,
2013-03-30 19:42:00,40.0,38.0,29.79,WSW,238,0.0,0.0,91,0.00,,,0.71,,2013-03-31 00:42:00,
2013-03-30 19:53:00,40.0,37.0,29.78,WSW,238,0.0,0.0,90,0.00,,,0.71,,2013-03-31 00:53:00,
2013-03-30 20:02:00,39.0,36.0,29.79,WSW,238,0.0,0.0,90,0.00,,,0.71,,2013-03-31 01:02:00,
2013-03-30 20:12:00,39.0,36.0,29.79,WSW,238,0.0,0.0,90,0.00,,,0.71,,2013-03-31 01:12:00,
2013-03-30 20:22:00,39.0,36.0,29.78,WSW,238,0.0,0.0,90,0.00,,,0.71,,2013-03-31 01:22:00,
2013-03-30 20:32:00,37.0,34.0,29.78,WSW,238,0.0,0.0,89,0.00,,,0.71,,2013-03-31 01:32:00,
2013-03-30 20:42:00,37.0,34.0,29.78,WSW,238,0.0,0.0,89,0.00,,,0.71,,2013-03-31 01:42:00,
2013-03-30 20:52:00,36.0,33.0,29.78,WSW,238,0.0,0.0,90,0.00,,,0.71,,2013-03-31 01:52:00,
2013-03-30 21:02:00,35.0,32.0,29.78,WSW,238,0.0,0.0,90,0.00,,,0.71,,2013-03-31 02:02:00,
2013-03-30 21:12:00,35.0,32.0,29.78,WSW,238,0.0,0.0,90,0.00,,,0.71,,2013-03-31 02:12:00,
2013-03-30 21:22:00,35.0,32.0,29.78,WSW,238,0.0,0.0,89,0.00,,,0.71,,2013-03-31 02:22:00,
2013-03-30 21:32:00,34.0,31.0,29.78,WSW,238,0.0,0.0,90,0.00,,,0.71,,2013-03-31 02:32:00,
2013-03-30 21:42:00,34.0,31.0,29.78,WSW,238,0.0,0.0,90,0.00,,,0.71,,2013-03-31 02:42:00,
2013-03-30 21:52:00,33.0,30.0,29.79,WSW,238,0.0,0.0,90,0.00,,,0.71,,2013-03-31 02:52:00,
2013-03-30 22:02:00,33.0,30.0,29.79,WSW,238,0.0,0.0,90,0.00,,,0.71,,2013-03-31 03:02:00,
2013-03-30 22:12:00,33.0,30.0,29.79,WSW,238,0.0,0.0,90,0.00,,,0.71,,2013-03-31 03:12:00,
2013-03-30 22:22:00,32.0,29.0,29.78,WSW,238,0.0,0.0,89,0.00,,,0.71,,2013-03-31 03:22:00,
2013-03-30 22:33:00,31.0,28.0,29.79,WSW,238,0.0,0.0,90,0.00,,,0.71,,2013-03-31 03:33:00,
2013-03-30 22:43:00,31.0,28.0,29.79,WSW,238,0.0,0.0,90,0.00,,,0.71,,2013-03-31 03:43:00,
2013-03-30 22:54:00,31.0,28.0,29.78,WSW,238,0.0,0.0,90,0.00,,,0.71,,2013-03-31 03:54:00,
2013-03-30 23:02:00,31.0,-99.9,29.78,WSW,238,0.0,0.0,91,0.00,,,0.71,,2013-03-31 04:02:00,
2013-03-30 23:13:00,31.0,29.0,29.78,WSW,238,0.0,0.0,91,0.00,,,0.71,,2013-03-31 04:13:00,
2013-03-30 23:23:00,31.0,29.0,29.78,West,269,0.0,0.0,91,0.00,,,0.71,,2013-03-31 04:23:00,
2013-03-30 23:32:00,31.0,29.0,29.78,West,269,0.0,0.0,91,0.00,,,0.71,,2013-03-31 04:32:00,
2013-03-30 23:42:00,31.0,29.0,29.78,West,269,0.0,0.0,91,0.00,,,0.71,,2013-03-31 04:42:00,
2013-03-30 23:52:00,30.0,28.0,29.77,West,269,0.0,0.0,91,0.00,,,0.71,,2013-03-31 04:52:00,